Regional Weather Roundup
Issued by NWS Grand Forks, ND

Home | Current Version | Previous Version | Graphics & Text | Print | Product List | Glossary On
Versions: 1 2 3 4 5 6 7 8 9 10 11 12 13 14 15 16 17 18 19 20 21 22 23 24 25 26 27 28 29 30 31 32 33 34 35 36 37 38 39 40 41 42 43 44 45 46 47 48 49 50
000
ASUS43 KFGF 010231
RWRFGF
PRAIRIE TO PINES  WEATHER ROUNDUP
NATIONAL WEATHER SERVICE EASTERN NORTH DAKOTA/GRAND FORKS ND
900 PM CDT MON AUG 31 2015

 **SATELLITE DATA USED TO AUGMENT SKY COVER AT AUTOMATED STATIONS**
 *****  WEATHER ACROSS EASTERN NORTH DAKOTA  *****

CITY           SKY/WX    TMP DP  RH WIND       PRES   REMARKS
GRAND FORKS    CLOUDY    66  59  78 SW6       29.82R
GRAND FRKS AFB CLOUDY    65  59  81 W6        29.83R
GRAND FRKS NWS   N/A     70 N/A N/A W2          N/A
DEVILS LAKE    PTCLDY    64  46  52 W8        29.85R
FARGO          CLOUDY    73  65  75 S3        29.83R
WAHPETON ARPT  CLOUDY    70  63  78 CALM      29.85R
$$

 ***** WEATHER ACROSS CENTRAL AND WESTERN NORTH DAKOTA  *****

CITY           SKY/WX    TMP DP  RH WIND       PRES   REMARKS
BISMARCK       PTCLDY    67  47  48 CALM      29.88R
MINOT          CLEAR     70  42  36 S5        29.84R
JAMESTOWN      CLOUDY    64  55  72 CALM      29.87R
MINOT AFB      CLEAR     65  42  44 SW2       29.83R
GARRISON         N/A     66  50  56 CALM      29.87R
WILLISTON      CLEAR     64  41  42 W6        29.84S
DICKINSON      CLEAR     65  42  43 S5        29.89R
HETTINGER      CLEAR     66  44  45 CALM      29.93R
$$

 *****  OTHER AIRPORT OBSERVATIONS IN OUR AREA  *****

CITY           SKY/WX    TMP DP  RH WIND       PRES   REMARKS
WALHALLA       FAIR      66  46  48 MISG      29.81R
GRAFTON AIRPOR FAIR      66  54  63 SW6       29.82R
VALLEY CITY AR FAIR      63  61  94 W5        29.87R
CANDO          FAIR      57  46  67 SW7       29.86R
CAVALIER APRT  FAIR      68  46  45 W3        29.81R
GWINNER          N/A     66  66 100 SW6       29.88R
ROLLA          FAIR      54  45  71 SW5       29.86R
 ***** THE ABOVE OBSERVATIONS ARE NON NWS ARE NOT QUALITY
       CONTROLLED AND MAY MIS-REPORT RAIN FOR SNOW...
$$

  *****  WEATHER ACROSS NORTHERN MINNESOTA  *****

CITY           SKY/WX    TMP DP  RH WIND       PRES   REMARKS
FLAG ISLAND    MOCLDY    70  64  83 S6        29.78R
WARROAD        CLOUDY    66  63  88 SW6       29.81R
ROSEAU         MOCLDY    68  63  83 SW8       29.81R
HALLOCK        MOCLDY    63  48  59 CALM      29.81R
THF RVR FALLS  CLOUDY   N/A N/A N/A W8        29.83R
BAUDETTE       CLOUDY    66  63  90 S3        29.81R
WASKISH        CLOUDY    66  64  94 CALM      29.84R
CROOKSTON      CLOUDY    70  55  60 CALM      29.84R
STEPHEN NDAWN    N/A     68  59  73 SW5         N/A
GREENBUSH NDAW   N/A     64  57  77 SW3         N/A
$$
  *****  WEATHER ACROSS CENTRAL AND WEST MINNESOTA  *****

CITY           SKY/WX    TMP DP  RH WIND       PRES   REMARKS
FOSSTON        CLOUDY    64  61  88 S3        29.86R
BEMIDJI        CLOUDY    68  66  91 CALM      29.86R
PARK RAPIDS    CLOUDY    73  66  78 CALM      29.85F
ELBOW LAKE     FAIR      71  68  90 CALM      29.85R
WADENA         MOCLDY    70  64  83 CALM      29.86R
DETROIT LAKES  CLOUDY    70  64  83 CALM      29.88R
MOORHEAD       CLOUDY    70  64  83 CALM      29.85R
FERGUS FALLS   CLOUDY    72  66  83 CALM      29.84R
MORRIS MN      MOCLDY    70  66  88 NW3       29.85R
STAPLES        PTCLDY    72  66  83 CALM      29.86S
$$
  *****  WEATHER ELSEWHERE ACROSS MINNESOTA  *****

CITY           SKY/WX    TMP DP  RH WIND       PRES   REMARKS
DULUTH         PTCLDY    73  69  87 SW6       29.89R
INTRNTL FALLS  CLOUDY    67  64  90 SW3       29.82R
ELY            CLOUDY    73  66  78 SW6       29.86R
CLOQUET        MOCLDY    73  66  78 S5        29.89S
WHEATON        CLOUDY    70  66  88 CALM      29.88R
BRAINERD       PTCLDY    74  68  81 S8        29.86R
HIBBING        PTCLDY    74  67  78 VRB5      29.86R
ALEXANDRIA     PTCLDY    73  65  75 NE3       29.88R
SAINT CLOUD    CLEAR     72  69  90 S7        29.88R
MINNEAPOLIS    MOCLDY    80  70  71 S7        29.90R
$$

  *****  WEATHER ACROSS SOUTH DAKOTA  *****

CITY           SKY/WX    TMP DP  RH WIND       PRES   REMARKS
SIOUX FALLS    PTCLDY    77  69  76 S12       29.89R
BROOKINGS      PTCLDY    75  68  78 SE12      29.89S
WATERTOWN      PTCLDY    71  66  84 NW5       29.88R
HURON          MOCLDY    69  66  90 NW3       29.87R
SISSETON         N/A     71  66  84 NW5       29.86R
ABERDEEN       MOCLDY    65  63  93 CALM      29.88R
MITCHELL       MOCLDY    73  68  84 NW7       29.86R
PIERRE         CLOUDY    68  62  81 CALM      29.90R
MOBRIDGE       PTCLDY    63  57  81 NE3       29.88R
RAPID CITY     MOCLDY    66  58  75 E3        29.95R
$$

  *****  SOME WEATHER IN NEARBY STATES *****

CITY           SKY/WX    TMP DP  RH WIND       PRES   REMARKS
GLASGOW MT     PTCLDY    66  41  40 S10       29.81F
GREAT FALLS MT PTCLDY    67  36  31 W3        29.87S
CHEYENNE WY    LGT RAIN  62  49  62 W8        30.21R
SCOTTSBLUFF NE LGT RAIN  70  54  56 SW17G23   30.08R
OMAHA NE       CLEAR     78  69  73 SE7       29.91R
DES MOINES IA  MOCLDY    79  71  76 S5        29.94R
DAVENPORT IA   CLEAR     76  71  85 SE6       29.99R
CHICAGO IL     CLEAR     75  68  78 E3        30.03R
EAU CLAIRE WI  CLEAR     76  70  82 S8        29.93R
LA CROSSE WI   CLEAR     76  70  82 SE6       29.95R
$$

  *****  SOME NATIONAL WEATHER *****

CITY           SKY/WX    TMP DP  RH WIND       PRES   REMARKS
LA GUARDIA NY  PTCLDY    87  64  46 W14       29.97R
RALEIGH NC     PTCLDY    70  70 100 CALM      30.09S
ATLANTA GA     PTCLDY    75  68  78 CALM      30.11R
NEW ORLEANS LA MOCLDY    81  69  67 W9        30.03R
OKLAHOMA CITY  CLEAR     81  64  56 SE10      29.97R
ALBUQUERQUE NM CLOUDY    80  48  32 N8        30.12R
SALT LAKE CITY PTCLDY    82  42  24 N6        29.94F
LOS ANGELES CA PTCLDY    72  66  81 W10       29.85S
BOISE ID       PTCLDY    78  42  27 NW8       29.89F
SEATTLE WA     CLOUDY    64  56  75 SW10      29.92F
$$

*** WEATHER ACROSS MANITOBA...SASKATCHEWAN AND ONTARIO ***
                ***ONTARIO***

CITY           SKY/WX    TMP DP  RH WIND       PRES   REMARKS
GERALDTON      MOCLDY    64  61  88 S14G22    29.80R FOG
THUNDER BAY    MOCLDY    72  64  78 SW6       29.82R
SIOUX LOOKOUT  MOCLDY    68  64  88 W6        29.78
TORONTO        CLEAR     73  64  73 N10       30.03R
BIG TROUT LK   CLEAR     63  61  94 W10G17    29.54R
PICKLE LAKE    PTCLDY    68  64  88 SW12      29.69R
DRYDEN         CLEAR     66  63  88 SW7       29.79R
KENORA         PTCLDY    68  64  88 SW6       29.79R
$$
                *** MANITOBA***

CITY           SKY/WX    TMP DP  RH WIND       PRES   REMARKS
BRANDON        PTCLDY    63  48  59 W10       29.78R
DAUPHIN        CLEAR     66  48  52 SW9       29.70R
ISLAND LAKE    PTCLDY    64  61  88 W6        29.58R
PILOT MOUND      N/A     57  46  67 SW5         N/A
THE PAS        PTCLDY    64  54  68 S5        29.55R
THOMPSON       DRIZZLE   57  55  94 CALM      29.54R
WINNIPEG       PTCLDY    66  50  55 SW8       29.76R
LYNN LAKE      MOCLDY    55  54  94 MISG      29.54F
CHURCHILL      CLOUDY    46  45  93 E15       29.60R
GILLAM         CLOUDY    50  48  93 N8        29.55R
$$
                ***SASKATCHEWAN***

CITY           SKY/WX    TMP DP  RH WIND       PRES   REMARKS
ESTEVAN        PTCLDY    61  43  51 S6        29.82R
KINDERSLEY     MOCLDY    63  41  45 SW7       29.68R
LLOYDMINSTER   MOCLDY    66  41  39 S5        29.62S
PRINCE ALBERT  PTCLDY    66  48  52 SW2       29.61R
REGINA         CLOUDY    63  46  55 SW6       29.74R
YORKTON        CLEAR     64  48  55 S7        29.72R
N. BATTLEFORD  CLEAR     63  46  55 CALM      29.65R
LA RONGE       PTCLDY    68  45  42 W6        29.55R
SASKATOON      MOCLDY    64  45  48 S7        29.66S
SWIFT CURRENT  CLEAR     66  41  39 W12G18    29.75R
$$
NOTE: THESE ARE AUTOMATED STATIONS WITH LIMITED QUALITY CONTROL
      "FAIR" INDICATES FEW OR NO CLOUDS BELOW 12,000 FEET WITH NO
      SIGNIFICANT WEATHER AND/OR OBSTRUCTIONS TO VISIBILITY.
      SKY/WX - SKY CONDITION AND SIGNIFICANT WEATHER.
      TMP - AIR TEMPERATURE.    DP   - DEWPOINT TEMPERATURE.
      RH  - RELATIVE HUMIDITY.  PRES - PRESSURE.
      HX  - HEAT INDEX.         WCI  - WIND CHILL INDEX.
$


USA.gov is the U.S. government's official web portal to all federal, state and local government web resources and services.